Regional Weather Roundup
Issued by NWS

Home | Current Version | Previous Version | Graphics & Text | Print | Product List | Glossary Off
Versions: 1 2 3 4 5 6 7 8 9 10 11 12 13 14 15 16 17 18 19 20 21 22 23 24 25 26 27 28 29 30 31 32 33 34 35 36 37 38 39 40 41 42 43 44 45 46 47 48 49 50

000
ASUS43 KMKX 250928
RWRWI

WISCONSIN REGIONAL WEATHER ROUNDUP
NATIONAL WEATHER SERVICE MILWAUKEE/SULLIVAN WI
400 AM CDT MON MAY 25 2015

NOTE: "FAIR" INDICATES FEW OR NO CLOUDS BELOW 12,000 FEET WITH NO
SIGNIFICANT WEATHER AND/OR OBSTRUCTIONS TO VISIBILITY.

WIZ001-002-006>008-014>016-023>028-251000-
NORTHWEST WISCONSIN

CITY           SKY/WX    TMP DP  RH WIND       PRES   REMARKS
SUPERIOR ARPT  LGT RAIN  49  49  98 E7        29.79F
ASHLAND        LGT RAIN  56  56 100 NE15      29.80F FOG
HAYWARD        LGT RAIN  57  55  93 NE7       29.76F FOG
SIREN          RAIN      57  56  97 E7        29.74F
CUMBERLAND     LGT RAIN  54  54 100 E5        29.74F
RICE LAKE      RAIN      56  55  94 E3        29.75F
CHETEK         RAIN      56  56  99 E3        29.74F
LADYSMITH      RAIN      57  56  97 E5        29.77S
EAU CLAIRE     LGT RAIN  57  55  93 E5        29.72F FOG
MENOMONIE      RAIN      57  57  98 NE3       29.73F
NEW RICHMOND   CLOUDY    56  56 100 E8        29.71F
OSCEOLA        CLOUDY    57  57 100 E7        29.73F
$$

WIZ003>005-009-010-017-018-251000-
NORTH CENTRAL WISCONSIN

CITY           SKY/WX    TMP DP  RH WIND       PRES   REMARKS
MANITOWISH WTR RAIN      56  56 100 E6        29.80F
ARBOR VITAE    RAIN      57  55  95 E8        29.79F
WOODRUFF       RAIN      57  55  95 E8        29.79F
RHINELANDER    LGT RAIN  56  54  93 E12       29.81F
EAGLE RIVER    HVY RAIN  55  55  99 E9        29.81F
LAND O LAKES   RAIN      56  56  97 E6        29.83F
PHILLIPS       RAIN      55  55  99 E6        29.76F
TOMAHAWK       LGT RAIN  55  54  96 E6        29.79F
MEDFORD        DRIZZLE   55  55  99 SE7       29.76S
MERRILL        CLOUDY    56  56 100 SE8       29.79F
$$

WIZ029-030-035-036-043>047-251000-
CENTRAL WISCONSIN

CITY           SKY/WX    TMP DP  RH WIND       PRES   REMARKS
WAUSAU         CLOUDY    56  56 100 SE8       29.77F FOG
MOSINEE        LGT RAIN  55  55 100 E7        29.79F VSB 3/4
MARSHFIELD     LGT RAIN  58  56  93 SE8       29.76F VSB 1/2
STEVENS POINT  DRIZZLE   55  55 100 E3        29.79F
WAUPACA        CLOUDY    60  59  97 CALM      29.80F FOG
WAUTOMA        CLOUDY    60  60 100 CALM      29.79F FOG
WISC RAPIDS    CLOUDY    60  58  92 SE5       29.78F FOG
CAMP DOUGLAS   CLOUDY    61  61 100 SE5       29.74F FOG
$$

WIZ011>013-019>022-031-037>040-048>050-251000-
NORTHEAST WISCONSIN

CITY           SKY/WX    TMP DP  RH WIND       PRES   REMARKS
ANTIGO         CLOUDY    54  54 100 E13       29.81F FOG
SHAWANO        DRIZZLE   59  58  96 E5        29.82F
OCONTO         CLOUDY    55  55 100 E3        29.82F
STURGEON BAY   CLOUDY    54  50  87 SE6       29.85F VSB 1
GREEN BAY      CLOUDY    58  57  97 NE3       29.82F FOG
MANITOWOC      LGT RAIN  52  52 100 CALM      29.83F FOG
APPLETON       DRIZZLE   57  57 100 E5        29.81F
CLINTONVILLE   RAIN      57  55  94 E5        29.80F
OSHKOSH        LGT RAIN  61  58  90 S5        29.80F FOG
$$

WIZ032>034-041-042-053>061-251000-
SOUTHWEST WISCONSIN

CITY           SKY/WX    TMP DP  RH WIND       PRES   REMARKS
LA CROSSE      CLOUDY    62  60  93 SE3       29.71F FOG
SPARTA         CLOUDY    64  62  94 SE5       29.73F
VIROQUA        CLOUDY    64  64 100 S12G17    29.74F
BOSCOBEL       LGT RAIN  63  61  93 CALM      29.73F FOG
PRAIRIE DU CHI LGT RAIN  67  63  89 S3        29.73F
PLATTEVILLE    CLOUDY    65  65  97 S6        29.75F
$$

WIZ056-057-062-063-064-067-068-251000-
SOUTH CENTRAL WISCONSIN

CITY           SKY/WX    TMP DP  RH WIND       PRES   REMARKS
REEDSBURG      CLOUDY    62  62  99 CALM      29.76F FOG
BARABOO/DELLS  DRIZZLE   64  62  94 S3        29.77S
LONE ROCK      CLOUDY    64  62  93 E3        29.76F FOG
MINERAL POINT  LGT RAIN  66  64  94 S5        29.77F
MADISON        LGT RAIN  65  64  97 S6        29.78S
MIDDLETON      CLOUDY    67  66  97 S7        29.78F
WATERTOWN      DRIZZLE   65  65 100 S6        29.80F
MONROE         CLOUDY    64  63  94 SE8       29.78F
JANESVILLE     CLOUDY    66  63  88 SE6       29.79F
$$

WIZ051-052-058>065-066-070>072-251000-
SOUTHEAST WISCONSIN

CITY           SKY/WX    TMP DP  RH WIND       PRES   REMARKS
MILWAUKEE      CLOUDY    54  52  93 E6        29.84F FOG
WAUKESHA       CLOUDY    61  59  94 S3        29.84S FOG
MILWAUKEE/TIMM CLOUDY    57  54  88 CALM      29.83F FOG
RACINE         CLOUDY    56  54  93 N3        29.85F FOG
BURLINGTON     CLOUDY    59  59  99 CALM      29.82F FOG
KENOSHA        LGT RAIN  63  61  93 CALM      29.84S FOG
FOND DU LAC    LGT RAIN  64  61  90 S9        29.80F
SHEBOYGAN      LGT RAIN  55  53  93 SE3       29.82F FOG
WEST BEND      LGT RAIN  63  61  94 S5        29.82F
JUNEAU         LGT RAIN  64  63  95 S10       29.82S
$$

LSZ147-162-251000-
LAKE SUPERIOR

STATION/POSITION TIME  TEMP    WIND        PRES    WAVE
                       AIR SEA DIR/SP/G            HT/PER
                 (UTC) (F)     (DEG/KT/KT) (MB)    (FT/S)
W MID LAKE BUOY  0850   41 37   60/  6/  8   N/A     0
DEVILS ISLAND    0900   55      30/ 17/ 18   N/A
PORT WING        0800   48      30/ 12/ 14   N/A
SAXON HARBOR     0800   51      CALM  /  4   N/A
$$

LMZ867-665-643>646-251000-
LAKE MICHIGAN

STATION/POSITION TIME  TEMP    WIND        PRES    WAVE
                       AIR SEA DIR/SP/G            HT/PER
                 (UTC) (F)     (DEG/KT/KT) (MB)    (FT/S)
CHAMBERS ISLAND  0800   53      60/  5/  7   N/A
N MID LAKE BUOY  0850   44 36  100/ 12/ 14   N/A     1
NORTHPORT PIER   0800   48      80/ 11/ 13   N/A
SISTER BAY       0817   55     110/ 10/ 14   N/A
KEWAUNEE LAKESHO 0900   47      CALM  /  2   N/A
SHEBOYGAN LAKESH 0900   47     180/  6/  7   N/A
PORT WASHINGTON  0840   50      CALM  /  2   N/A
ATWATER BUOY     0900   48 46  150/  2/  4   N/A
MILWAUKEE LAKESH 0900   49      80/  2/  3   N/A
S MID LAKE BUOY  0850   48 38  170/ 14/ 16   N/A     1/ 3
KENOSHA   LAKESH 0900   53     350/  2/  4   N/A
$$

TC  - TEMPERATURE IN CELSIUS
VSB - VISIBILITY IN STATUTE MILES
WCI - WIND CHILL INDEX
HX  - HEAT INDEX



USA.gov is the U.S. government's official web portal to all federal, state and local government web resources and services.